GW1769 Weather Reports


time (UTC)temp
F
wind
direction
speed
knots
gust
knots
rain 1hr
in
rain 24hr
in
rain mn
in
humidity
%
barometer
mb
20260503222329 51 298 2.6 2.6 0.00 0.00 0.00 39 1005.5
20260503221826 51 307 4.3 5.2 0.00 0.00 0.00 38 1005.7
20260503221325 51 152 3.5 5.2 0.00 0.00 0.00 38 1005.4
20260503220820 51 333 2.6 2.6 0.00 0.00 0.00 38 1005.4
20260503220318 52 311 3.5 6.1 0.00 0.00 0.00 36 1005.3
20260503215814 52 282 5.2 7.0 0.00 0.00 0.00 36 1005.5
20260503215312 52 313 3.5 4.3 0.00 0.00 0.00 36 1005.2
20260503214809 52 305 2.6 7.0 0.00 0.00 0.00 36 1005.2
20260503214306 52 310 3.5 6.1 0.00 0.00 0.00 35 1005.4
20260503213804 52 15 4.3 6.1 0.00 0.00 0.00 35 1005.3
20260503213301 53 340 2.6 4.3 0.00 0.00 0.00 34 1005.5
20260503212758 53 304 2.6 4.3 0.00 0.00 0.00 34 1005.3
20260503212256 53 41 3.5 6.1 0.00 0.00 0.00 34 1005.3
20260503211753 52 261 4.3 5.2 0.00 0.00 0.00 35 1005.4
20260503211249 52 317 4.3 4.3 0.00 0.00 0.00 33 1005.3
20260503210744 53 330 4.3 6.1 0.00 0.00 0.00 33 1005.4
20260503210242 52 347 1.7 1.7 0.00 0.00 0.00 34 1005.2
20260503205742 52 335 4.3 5.2 0.00 0.00 0.00 33 1005.5
20260503205239 53 332 2.6 4.3 0.00 0.00 0.00 34 1005.4
20260503204735 53 348 1.7 1.7 0.00 0.00 0.00 36 1005.4
20260503204233 54 4 1.7 1.7 0.00 0.00 0.00 35 1005.4
20260503203730 53 13 2.6 4.3 0.00 0.00 0.00 38 1005.7
20260503203228 52 314 2.6 4.3 0.00 0.00 0.00 35 1005.5
20260503202725 53 306 4.3 5.2 0.00 0.00 0.00 36 1005.4
20260503202223 54 338 5.2 6.1 0.00 0.00 0.00 35 1005.5
20260503201720 54 329 3.5 4.3 0.00 0.00 0.00 35 1005.6
20260503201218 53 339 1.7 1.7 0.00 0.00 0.00 35 1005.9
20260503200714 53 284 0.9 1.7 0.00 0.00 0.00 36 1005.7
20260503200210 53 290 3.5 4.3 0.00 0.00 0.00 37 1005.7
20260503195707 53 328 5.2 7.0 0.00 0.00 0.00 35 1005.9
20260503195204 53 330 5.2 7.0 0.00 0.00 0.00 36 1005.8
20260503194701 53 324 2.6 2.6 0.00 0.00 0.00 36 1006.0
20260503194156 52 322 3.5 5.2 0.00 0.00 0.00 37 1006.0
20260503193653 53 291 2.6 2.6 0.00 0.00 0.00 37 1006.1
20260503193149 53 328 3.5 4.3 0.00 0.00 0.00 39 1005.8
20260503192645 54 337 2.6 4.3 0.00 0.00 0.00 38 1006.0
20260503192141 53 335 2.6 4.3 0.00 0.00 0.00 40 1005.9
20260503191638 51 349 1.7 1.7 0.00 0.00 0.00 41 1006.2
20260503191135 51 334 2.6 2.6 0.00 0.00 0.00 42 1006.2
20260503190632 52 327 5.2 7.0 0.00 0.00 0.00 41 1006.4
20260503190129 50 15 1.7 1.7 0.00 0.00 0.00 42 1006.3
20260503185625 50 325 2.6 4.3 0.00 0.00 0.00 42 1006.5
20260503185120 50 10 2.6 2.6 0.00 0.00 0.00 43 1006.3
20260503184615 51 323 4.3 6.1 0.00 0.00 0.00 42 1006.6
20260503184112 51 296 4.3 5.2 0.00 0.00 0.00 41 1006.6
20260503183609 53 311 4.3 6.1 0.00 0.00 0.00 41 1006.6
20260503183106 50 239 2.6 4.3 0.00 0.00 0.00 43 1006.7
20260503182605 51 290 2.6 2.6 0.00 0.00 0.00 42 1006.6
20260503182102 51 292 2.6 4.3 0.00 0.00 0.00 42 1006.5
20260503181559 51 290 4.3 7.0 0.00 0.00 0.00 43 1006.9
20260503181055 51 309 3.5 4.3 0.00 0.00 0.00 43 1006.7
20260503180553 51 317 1.7 2.6 0.00 0.00 0.00 47 1006.9
20260503180050 50 5 2.6 2.6 0.00 0.00 0.00 45 1007.0
20260503175547 49 310 2.6 4.3 0.00 0.00 0.00 44 1007.0
20260503175044 49 313 3.5 4.3 0.00 0.00 0.00 46 1007.0
20260503174542 49 19 0.9 1.7 0.00 0.00 0.00 46 1007.1
20260503174038 48 307 2.6 2.6 0.00 0.00 0.00 48 1007.3
20260503173533 47 49 1.7 2.6 0.00 0.00 0.00 49 1007.3
20260503173029 46 295 2.6 2.6 0.00 0.00 0.00 49 1007.3
20260503172527 46 324 4.3 5.2 0.00 0.00 0.00 50 1007.5
20260503172024 46 300 3.5 5.2 0.00 0.00 0.00 49 1007.3
20260503171520 47 296 2.6 2.6 0.00 0.00 0.00 48 1007.3
20260503171018 48 306 2.6 4.3 0.00 0.00 0.00 48 1007.4
20260503170514 47 331 2.6 2.6 0.00 0.00 0.00 51 1007.6
20260503150906 44 339 3.5 4.3 0.00 0.00 0.00 55 1007.8
20260503150403 44 288 2.6 4.3 0.00 0.00 0.00 56 1007.9
20260503131256 42 333 2.6 2.6 0.00 0.00 0.00 70 1008.2
20260503130754 42 317 2.6 2.6 0.00 0.00 0.00 70 1008.6
20260503130251 42 333 3.5 4.3 0.00 0.00 0.00 70 1008.5
20260503120217 39 344 2.6 5.2 0.00 0.00 0.00 80 1008.2
20260503110644 37 307 4.3 4.3 0.00 0.00 0.00 82 1007.9
20260503110142 37 314 2.6 4.3 0.00 0.00 0.00 82 1007.9
20260503100109 36 343 1.7 1.7 0.00 0.00 0.00 83 1007.4
20260503081458 37 346 1.7 1.7 0.00 0.00 0.00 82 1007.7
20260503080955 37 335 1.7 1.7 0.00 0.00 0.00 82 1007.8
20260503080451 37 309 2.6 2.6 0.00 0.00 0.00 82 1008.1
20260503072927 37 29 0.9 1.7 0.00 0.00 0.00 81 1008.1
20260503072425 37 322 1.7 1.7 0.00 0.00 0.00 81 1007.9
20260503071922 37 307 1.7 1.7 0.00 0.00 0.00 81 1007.9
20260503071419 37 312 1.7 1.7 0.00 0.00 0.00 81 1008.0
20260503070915 36 306 1.7 2.6 0.00 0.00 0.00 82 1008.1
20260503070412 36 298 2.6 2.6 0.00 0.00 0.00 82 1008.1
20260503060338 36 354 0.9 1.7 0.00 0.00 0.00 81 1008.6
20260503054826 37 4 1.7 1.7 0.00 0.00 0.00 80 1008.8
20260503054321 36 345 1.7 1.7 0.00 0.00 0.00 79 1008.8
20260503053820 37 354 1.7 1.7 0.00 0.00 0.00 79 1008.8
20260503053318 37 321 1.7 1.7 0.00 0.00 0.00 78 1008.6
20260503052814 37 294 2.6 2.6 0.00 0.00 0.00 78 1008.9
20260503052311 37 317 2.6 4.3 0.00 0.00 0.00 78 1008.8
20260503051807 36 310 1.7 2.6 0.00 0.00 0.00 78 1009.0
20260503051303 36 344 1.7 1.7 0.00 0.00 0.00 77 1009.0
20260503050800 36 341 1.7 1.7 0.00 0.00 0.00 77 1009.0
20260503050256 36 356 1.7 1.7 0.00 0.00 0.00 76 1009.0
20260503045754 36 334 2.6 2.6 0.00 0.00 0.00 77 1009.2
20260503045252 36 325 1.7 1.7 0.00 0.00 0.00 75 1009.1
20260503044748 37 319 2.6 2.6 0.00 0.00 0.00 75 1009.1
20260503044245 37 309 2.6 4.3 0.00 0.00 0.00 75 1009.4
20260503043742 37 319 2.6 2.6 0.00 0.00 0.00 75 1009.2
20260503043239 37 331 0.9 1.7 0.00 0.00 0.00 75 1009.2
20260503042735 37 324 2.6 2.6 0.00 0.00 0.00 75 1009.3
20260503042232 37 326 2.6 2.6 0.00 0.00 0.00 75 1009.2
20260503041728 37 331 1.7 2.6 0.00 0.00 0.00 74 1009.2
20260503041226 37 335 1.7 1.7 0.00 0.00 0.00 74 1009.5
20260503040724 37 0 0.9 0.9 0.00 0.00 0.00 74 1009.4
20260503040221 37 325 1.7 1.7 0.00 0.00 0.00 74 1009.2
20260503035717 37 355 1.7 1.7 0.00 0.04 0.04 74 1009.4
20260503035215 37 320 1.7 1.7 0.00 0.04 0.04 74 1009.5
20260503034712 37 323 1.7 2.6 0.00 0.04 0.04 75 1009.2
20260503034209 37 308 1.7 1.7 0.00 0.04 0.04 74 1009.5
20260503033706 37 310 1.7 1.7 0.00 0.04 0.04 75 1009.5
20260503033204 36 306 1.7 1.7 0.00 0.04 0.04 76 1009.3
20260503032702 36 347 0.9 1.7 0.00 0.04 0.04 77 1009.3
20260503032200 36 357 0.9 0.9 0.00 0.04 0.04 78 1009.3
20260503031657 34 355 0.9 0.9 0.00 0.04 0.04 82 1009.6
20260503031155 34 22 0.0 0.9 0.00 0.04 0.04 85 1009.5
20260503030651 34 21 0.0 0.9 0.00 0.04 0.04 82 1009.7
20260503030148 35 21 0.0 0.9 0.00 0.04 0.04 81 1009.5
20260503025644 34 6 0.9 0.9 0.00 0.04 0.04 82 1009.7
20260503025143 34 21 0.0 0.0 0.00 0.04 0.04 84 1009.3
20260503024638 35 21 0.0 0.9 0.00 0.04 0.04 82 1009.5
20260503024136 35 21 0.0 0.0 0.00 0.04 0.04 80 1009.5
20260503023633 36 21 0.0 0.0 0.00 0.04 0.04 79 1009.5
20260503023130 36 21 0.0 0.0 0.00 0.04 0.04 76 1009.6
20260503022625 36 20 0.0 0.9 0.00 0.04 0.04 76 1009.5
20260503022120 37 19 0.9 0.9 0.00 0.04 0.04 76 1009.6
20260503021618 37 19 0.9 0.9 0.00 0.04 0.04 75 1009.4
20260503021114 37 8 0.9 0.9 0.00 0.04 0.04 76 1009.4
20260503020611 37 23 0.0 0.0 0.00 0.04 0.04 76 1009.5
20260503020109 37 23 0.0 0.0 0.00 0.04 0.04 74 1009.7
20260503015605 38 23 0.0 0.0 0.00 0.04 0.04 72 1009.8
20260503015102 39 19 0.9 0.9 0.00 0.04 0.04 71 1009.8
20260503014558 39 18 0.9 0.9 0.00 0.04 0.04 69 1009.6
20260503014056 39 359 0.9 0.9 0.00 0.04 0.04 69 1009.5
20260503013553 39 17 0.9 0.9 0.00 0.04 0.04 68 1009.6
20260503013051 39 9 0.0 0.9 0.00 0.04 0.04 68 1009.7
20260503012548 40 354 1.7 1.7 0.00 0.04 0.04 67 1009.5
20260503012044 40 13 0.9 0.9 0.00 0.04 0.04 67 1009.6
20260503011541 40 32 0.9 0.9 0.00 0.04 0.04 67 1009.7
20260503011038 40 354 0.9 1.7 0.00 0.04 0.04 66 1009.5
20260503010534 40 353 0.9 0.9 0.00 0.04 0.04 66 1009.5
20260503010032 40 17 1.7 1.7 0.00 0.04 0.04 67 1009.6
20260503005529 41 10 0.9 0.9 0.00 0.04 0.04 66 1009.3
20260503005026 41 335 1.7 1.7 0.00 0.04 0.04 66 1009.2
20260503004522 41 327 1.7 1.7 0.00 0.04 0.04 67 1009.3
20260503004021 41 39 0.9 0.9 0.00 0.04 0.04 67 1009.3
20260503003517 41 328 1.7 1.7 0.00 0.04 0.04 66 1009.2
20260503003014 41 345 1.7 1.7 0.00 0.04 0.04 66 1009.2
20260503002511 41 6 1.7 1.7 0.00 0.04 0.04 66 1009.3
20260503002008 42 343 2.6 4.3 0.00 0.04 0.04 65 1009.0
20260503001504 42 0 1.7 1.7 0.00 0.04 0.04 64 1009.1
20260503001001 42 316 2.6 2.6 0.00 0.04 0.04 64 1009.0
20260503000453 42 14 2.6 2.6 0.00 0.04 0.04 63 1009.0
20260502235950 43 306 2.6 2.6 0.00 0.04 0.04 62 1009.1
20260502235447 43 311 2.6 4.3 0.00 0.04 0.04 62 1008.9
20260502234944 43 318 2.6 2.6 0.00 0.04 0.04 62 1008.8
20260502234440 43 326 2.6 2.6 0.00 0.04 0.04 60 1009.0
20260502233938 44 28 0.9 0.9 0.00 0.04 0.04 62 1009.0
20260502233433 44 323 2.6 2.6 0.00 0.04 0.04 60 1009.0
20260502232930 44 336 1.7 1.7 0.00 0.04 0.04 60 1008.8
20260502232426 45 319 2.6 4.3 0.00 0.04 0.04 59 1008.8
20260502231923 45 320 2.6 4.3 0.00 0.04 0.04 59 1008.5
20260502231421 45 323 1.7 2.6 0.00 0.04 0.04 58 1008.6
20260502230919 45 19 2.6 2.6 0.00 0.04 0.04 58 1008.8
20260502230417 45 340 1.7 1.7 0.00 0.04 0.04 57 1008.5
20260502225915 46 226 3.5 4.3 0.00 0.04 0.04 56 1008.7
20260502225410 46 310 2.6 5.2 0.00 0.04 0.04 56 1008.6
20260502224908 46 311 2.6 2.6 0.00 0.04 0.04 56 1008.5
20260502224403 46 315 2.6 2.6 0.00 0.04 0.04 55 1008.4
20260502223900 45 324 2.6 2.6 0.00 0.04 0.04 56 1008.3
20260502223358 45 312 3.5 4.3 0.00 0.04 0.04 56 1008.2
20260502222856 45 315 4.3 5.2 0.00 0.04 0.04 55 1008.2